Regional Weather Roundup
Issued by NWS

Home | Current Version | Previous Version | Text Only | Print | Product List | Glossary Off
Versions: 1 2 3 4 5 6 7 8 9 10 11 12 13 14 15 16 17 18 19 20 21 22 23 24 25 26 27 28 29 30 31 32 33 34 35 36 37 38 39 40 41 42 43 44 45 46 47 48 49 50

000
ASUS45 KBOU 222207
RWRCO

WEATHER ROUNDUP FOR COLORADO
NATIONAL WEATHER SERVICE DENVER/BOULDER CO
300 PM MST WED FEB 22 2017

NOTE: "FAIR" INDICATES FEW OR NO CLOUDS BELOW 12000 FEET WITH NO
SIGNIFICANT WEATHER AND/OR OBSTRUCTIONS TO VISIBILITY.

COZ001>005-013-030-031-222300-
...NORTHWEST COLORADO...

CITY           SKY/WX    TMP DP  RH WIND       PRES   REMARKS
CRAIG          LGT SNOW  35  29  78 N8        29.83F WCI  29
HAYDEN         PTSUNNY   34  27  75 S3        29.83F
MEEKER         PTSUNNY   48  30  49 MISG      29.77F
MOUNT WERNER   NOT AVBL
STEAMBOAT SPGS CLOUDY    36  30  79 CALM      29.81F
WALDEN         NOT AVBL
$$

COZ006>008-011-222300-
...WEST CENTRAL VALLEYS...

CITY           SKY/WX    TMP DP  RH WIND       PRES   REMARKS
GRAND JUNCTION PTSUNNY   60  26  27 NW13      29.71F
MONTROSE       FAIR      59  20  22 SW26G43   29.78F
EAGLE          PTSUNNY   48  30  49 CALM      29.79F
RIFLE          PTSUNNY   56  28  34 W16       29.73F
DELTA          PTSUNNY   65  23  20 SW21G36   29.75F
NUCLA          NOT AVBL
$$

COZ017>023-064>068-222300-
...SOUTHWEST COLORADO...

CITY           SKY/WX    TMP DP  RH WIND       PRES   REMARKS
DURANGO        FAIR      54  27  35 W15       29.91F
CORTEZ         FAIR      61  22  22 SW26G37   29.86F
PAGOSA SPRINGS FAIR      48  22  35 SW12G24   29.95F
TELLURIDE      FAIR      44  16  32 SW6G21    29.93F
WOLF CREEK PAS CLOUDY    25  25 100 SW22G37   30.05F WCI  10
$$

COZ009-010-012-014-032>034-037-058>063-222300-
...CENTRAL COLORADO...

CITY           SKY/WX    TMP DP  RH WIND       PRES   REMARKS
ASPEN          PTSUNNY   44  21  40 VRB6      29.82F
BUENA VISTA    FAIR      52   5  15 SW18G32   29.83S
COPPER MTN     PTSUNNY   32  10  40 MISG      29.93S HAZE
BERTHOUD PASS  FAIR      27  16  63 W16G31    29.92R WCI  14
COTTONWOOD PAS FAIR      45   5  19 SW21G37   29.87F
GUNNISON       FAIR      47  19  33 W18G24    29.85F
KREMMLING      PTSUNNY   54  27  35 S24       29.80S
LEADVILLE      CLOUDY    37   9  31 SW14G23   29.85F
MONARCH PASS   FAIR      28  14  54 W38G45    30.06R WCI  11
SALIDA         FAIR      55  13  18 W17       29.91S
SUNLIGHT       NOT AVBL
WILKERSON PASS FAIR      37   5  25 SW20G28   29.92F
$$

COZ069>075-222300-
...SAN LUIS VALLEY/SANGRE DE CRISTO MOUNTAINS...

CITY           SKY/WX    TMP DP  RH WIND       PRES   REMARKS
ALAMOSA        FAIR      51  26  37 SW26G36   29.92F
LA VETA PASS   FAIR      36  19  51 NE26G49   29.96S
SAGUACHE       FAIR      54  10  17 W21G26    29.86S
$$

COZ035-036-038>040-222300-
...NORTHERN COLORADO FRONT RANGE...

CITY           SKY/WX    TMP DP  RH WIND       PRES   REMARKS
DENVER INTL AP FAIR      57  21  24 E21G30    29.74F
DMNS CITY PARK   N/A     56  20  24 NE16G25   29.73S
AURORA         MOSUNNY   57  22  25 E21       29.74F
FRONT RANGE AP MOSUNNY  N/A N/A N/A E22G33    29.76F
ERIE MUNI ARPT FAIR      59  18  20 E10G16    29.75S
BOULDER MUN AP FAIR      55  23  28 NE7       29.74F
CENTENNIAL     FAIR      57  20  23 E15G22    29.74F
BROOMFIELD     MOSUNNY   59  21  23 E9        29.76F
FORT COLLINS   FAIR      60  24  25 SE12G17   29.75F
LONGMONT       FAIR      62  22  21 E8        29.76F
$$

COZ041-046-047-076>085-087-088-222300-
...PIKES PEAK/PALMER DIVIDE AND SOUTHERN FOOTHILLS...

CITY           SKY/WX    TMP DP  RH WIND       PRES   REMARKS
COLO. SPRINGS  FAIR      66   6   9 SW21G32   29.74F
A. F. ACADEMY  FAIR      62  -4   7 W13G35    29.74F
SCHRIEVER AFB  FAIR      64  11  12 S15G26    29.75F
ELLICOTT       FAIR     N/A N/A N/A SW18G26   29.74F
FALCON         FAIR      62   0   8 W20G26    29.78F
FORT CARSON    FAIR      64  12  13 S15G24    29.72F
LIMON          FAIR      59  20  22 E15       29.75F
MONUMENT HILL  FAIR      57   3  11 W20G36    29.79S
TRINIDAD       FAIR      67   8  10 W25G36    29.82R
$$

COZ042>045-048>051-090-091-222300-
...NORTHEAST COLORADO...

CITY           SKY/WX    TMP DP  RH WIND       PRES   REMARKS
GREELEY ARPT   FAIR      58  22  24 N14       29.76F
AKRON          FAIR      59  18  20 N9        29.78F
BURLINGTON     FAIR      64  23  21 E12       29.77F
WRAY           NOT AVBL
STERLING       FAIR      59  21  23 NW10G18   29.76F
HOLYOKE        FAIR      66  16  14 N10       29.76F
FORT MORGAN    FAIR      59  16  18 N12       29.78F
$$

COZ086-089-092>099-222300-
...SOUTHEAST COLORADO...

CITY           SKY/WX    TMP DP  RH WIND       PRES   REMARKS
PUEBLO         FAIR      72  16  12 SW25G37   29.69F
LA JUNTA       FAIR      75  17  11 W20G30    29.71F
LAMAR          FAIR      71  23  16 SE12      29.70F
SPRINGFIELD      N/A     72  20  14 CALM      29.75S
$$



USA.gov is the U.S. government's official web portal to all federal, state and local government web resources and services.